User: anonymous   Login
Location: Unspecified
(0.0000°N, 0.0000°E)
Time: 06:51:02
(UTC+00:00)
Language:

WGS F2 (USA 204) - Orbit

View from above orbital plane
View from above orbital plane
View from above satellite
View from above satellite

Ground track
Ground track

The orbit data is extracted from the following two-line orbital elements,

1 34713U 09017A   15042.40248998 0.00000000  00000-0  00000-0 0    04
2 34713   0.0250 346.2785 0003453 211.9277 148.0624  1.00270000    01
Epoch (UTC): 11 February 2015 09:39:35
Eccentricity: 0.0003453
inclination: 0.0250°
perigee height: 35772 km
apogee height: 35801 km
right ascension of ascending node: 346.2785°
argument of perigee: 211.9277°
revolutions per day: 1.00270000
mean anomaly at epoch: 148.0624°
orbit number at epoch: 0

The dashed part of the orbit path shows where the satellite is in the earth's shadow,  

DLR